User: anonymous   Login
Location: Unspecified
(0.0000°N, 0.0000°E)
Time: 15:58:46
(UTC+00:00)
Language:

USA 227 - Orbit

View from above orbital plane
View from above orbital plane
View from above satellite
View from above satellite

Ground track
Ground track

The orbit data is extracted from the following two-line orbital elements,

1 37377U 11011A   18201.57472918 0.00000000  00000-0  00000-0 0    09
2 37377   4.5649   4.1519 0004420 191.7716 168.2305  1.00270000    04
Epoch (UTC): 20 July 2018 13:47:36
Eccentricity: 0.0004420
inclination: 4.5649°
perigee height: 35768 km
apogee height: 35805 km
right ascension of ascending node: 4.1519°
argument of perigee: 191.7716°
revolutions per day: 1.00270000
mean anomaly at epoch: 168.2305°
orbit number at epoch: 0

The dashed part of the orbit path shows where the satellite is in the earth's shadow,  

DLR